Weather History for Metropolis, IL

Change the Weather History Date:

Monday, December 17, 2012

  Actual Average (KPAH) Record (KPAH)
Temperature  
Mean Temperature 50 °F 37 °F  
Max Temperature 58 °F 46 °F 66 °F (1984)
Min Temperature 42 °F 28 °F 6 °F (1989)
Degree Days  
Heating Degree Days 15 28  
Month to date heating degree days 442  
Since 1 July heating degree days 1219  
Cooling Degree Days 0 0  
Month to date cooling degree days 0  
Year to date cooling degree days 1542  
Moisture  
Dew Point 49 °F    
Average Humidity 92    
Maximum Humidity 100    
Minimum Humidity 70    
Precipitation  
Precipitation 0.00 in 0.15 in 2.70 in (2001)
Month to date precipitation 2.62  
Year to date precipitation 47.11  
Snow  
Snow 0.00 in 0.10 in 1.00 in (1951)
Month to date snowfall 1.0  
Since 1 July snowfall 1.1  
Snow Depth -    
Sea Level Pressure  
Sea Level Pressure 29.69 in    
Wind  
Wind Speed 5 mph (West)    
Max Wind Speed 14 mph    
Max Gust Speed 20 mph    
Visibility 8 miles    
Events      
T = Trace of Precipitation, MM = Missing Value Source: NWS Daily Summary

Daily Weather History Graph

Daily Weather History Graph

Search for Another Location

Airport:

Trip Planner

Search our weather history database for the weather conditions in past years. The results will help you decide how hot, cold, wet, or windy it might be!

Date:

Astronomy

Dec. 17, 2012 Rise Set
Actual Time 7:03 AM CST 4:39 PM CST
Civil Twilight 6:33 AM CST 5:08 PM CST
Nautical Twilight 6:01 AM CST 5:41 PM CST
Astronomical Twilight 5:29 AM CST 6:13 PM CST
Moon 10:17 AM CST (12/17) 9:54 PM CST (12/17)
Length of Visible Light 10h 34m
Length of Day
9h 36m
Waxing Crescent, 25% of the Moon is Illuminated
Dec 17
Waxing Crescent
Dec 19
First Quarter
Dec 28
Full
Jan 4
Last Quarter
Jan 11
New

Hourly Weather History & Observations

Time (CST) Temp. Windchill Dew Point Humidity Pressure Visibility Wind Dir Wind Speed Gust Speed Precip Events Conditions
12:15 AM 57.0 °F - 57.0 °F 100% 29.72 in 10.0 mi SW 3.5 mph - N/A   Overcast
12:55 AM 56.3 °F - 56.3 °F 100% 29.71 in 7.0 mi Calm Calm - N/A   Overcast
1:15 AM 56.1 °F - 56.1 °F 100% 29.72 in 7.0 mi SW 3.5 mph - N/A   Overcast
1:35 AM 56.1 °F - 56.1 °F 100% 29.72 in 7.0 mi SW 3.5 mph - N/A   Mostly Cloudy
1:55 AM 55.2 °F - 55.2 °F 100% 29.71 in 7.0 mi SW 3.5 mph - N/A   Scattered Clouds
2:15 AM 54.7 °F - 54.7 °F 100% 29.71 in 5.0 mi Calm Calm - N/A   Scattered Clouds
2:35 AM 54.9 °F - 54.9 °F 100% 29.70 in 5.0 mi Calm Calm - N/A   Mostly Cloudy
2:55 AM 54.9 °F - 54.9 °F 100% 29.70 in 7.0 mi SSW 4.6 mph - N/A   Mostly Cloudy
3:15 AM 54.5 °F - 54.5 °F 100% 29.70 in 7.0 mi SW 3.5 mph - N/A   Scattered Clouds
3:55 AM 53.8 °F - 53.8 °F 100% 29.69 in 5.0 mi Calm Calm - N/A   Clear
4:15 AM 53.4 °F - 53.4 °F 100% 29.69 in 4.0 mi Calm Calm - N/A   Mostly Cloudy
4:35 AM 53.6 °F - 53.6 °F 100% 29.68 in 3.0 mi Calm Calm - N/A   Mostly Cloudy
4:55 AM 54.0 °F - 54.0 °F 100% 29.66 in 3.0 mi Calm Calm - N/A   Mostly Cloudy
5:15 AM 53.6 °F - 53.6 °F 100% 29.66 in 2.5 mi Calm Calm - N/A   Scattered Clouds
5:35 AM 53.1 °F - 53.1 °F 100% 29.66 in 1.0 mi Calm Calm - N/A   Mostly Cloudy
5:55 AM 53.2 °F - 53.2 °F 100% 29.66 in 1.8 mi Calm Calm - N/A   Mostly Cloudy
6:15 AM 54.0 °F - 54.0 °F 100% 29.65 in 4.0 mi Calm Calm - N/A   Overcast
6:35 AM 54.1 °F - 54.1 °F 100% 29.65 in 4.0 mi Calm Calm - N/A   Overcast
6:55 AM 54.0 °F - 54.0 °F 100% 29.65 in 4.0 mi Calm Calm - N/A   Overcast
7:15 AM 54.5 °F - 54.5 °F 100% 29.65 in 5.0 mi Calm Calm - N/A   Overcast
7:35 AM 54.5 °F - 54.5 °F 100% 29.64 in 5.0 mi SSE 3.5 mph - N/A   Overcast
7:55 AM 54.7 °F - 54.7 °F 100% 29.65 in 10.0 mi SSW 3.5 mph - N/A   Overcast
8:15 AM 55.2 °F - 55.2 °F 100% 29.65 in 7.0 mi South 4.6 mph - N/A   Overcast
8:35 AM 55.6 °F - 55.6 °F 100% 29.65 in 10.0 mi SW 8.1 mph - N/A   Overcast
8:55 AM 55.8 °F - 55.4 °F 99% 29.65 in 10.0 mi SW 6.9 mph - N/A   Overcast
9:15 AM 56.3 °F - 55.2 °F 96% 29.65 in 10.0 mi SSW 10.4 mph 16.1 mph N/A   Overcast
9:35 AM 58.1 °F - 54.7 °F 88% 29.65 in 10.0 mi SW 11.5 mph - N/A   Overcast
9:55 AM 57.4 °F - 54.0 °F 88% 29.65 in 10.0 mi SW 11.5 mph 16.1 mph N/A   Mostly Cloudy
10:15 AM 56.7 °F - 53.8 °F 90% 29.66 in 10.0 mi WSW 11.5 mph 19.6 mph N/A   Overcast
10:35 AM 57.0 °F - 53.6 °F 88% 29.66 in 10.0 mi WSW 11.5 mph - N/A   Overcast
10:55 AM 55.6 °F - 52.0 °F 88% 29.66 in 10.0 mi SW 13.8 mph 18.4 mph N/A   Overcast
11:15 AM 55.4 °F - 51.4 °F 87% 29.65 in 10.0 mi WSW 12.7 mph - N/A   Mostly Cloudy
11:55 AM 55.4 °F - 51.3 °F 86% 29.63 in 10.0 mi WSW 9.2 mph - N/A   Overcast
12:15 PM 56.5 °F - 51.6 °F 84% 29.62 in 10.0 mi West 9.2 mph - N/A   Overcast
12:35 PM 56.5 °F - 51.4 °F 83% 29.62 in 10.0 mi West 9.2 mph - N/A   Mostly Cloudy
12:55 PM 55.8 °F - 50.7 °F 83% 29.61 in 10.0 mi West 11.5 mph - N/A   Scattered Clouds
1:15 PM 56.3 °F - 49.3 °F 77% 29.60 in 10.0 mi West 9.2 mph - N/A   Clear
1:35 PM 56.3 °F - 46.9 °F 71% 29.60 in 10.0 mi West 5.8 mph - N/A   Clear
1:55 PM 56.3 °F - 46.6 °F 70% 29.60 in 10.0 mi WSW 11.5 mph - N/A   Clear
2:15 PM 55.4 °F - 45.7 °F 70% 29.61 in 10.0 mi West 11.5 mph 16.1 mph N/A   Scattered Clouds
2:35 PM 53.2 °F - 45.5 °F 75% 29.62 in 10.0 mi WNW 12.7 mph 17.3 mph N/A   Mostly Cloudy
2:55 PM 49.8 °F - 43.9 °F 80% 29.63 in 10.0 mi WNW 13.8 mph 19.6 mph N/A   Overcast
3:15 PM 48.7 °F - 43.0 °F 80% 29.65 in 10.0 mi West 13.8 mph 19.6 mph N/A   Overcast
3:35 PM 47.7 °F - 42.8 °F 83% 29.65 in 10.0 mi WNW 12.7 mph - N/A   Overcast
3:55 PM 46.4 °F 41.1 °F 42.1 °F 85% 29.66 in 10.0 mi WNW 11.5 mph 16.1 mph N/A   Overcast
6:15 PM 43.9 °F 39.9 °F 43.9 °F 100% 29.73 in 7.0 mi WNW 6.9 mph - N/A   Overcast
6:35 PM 43.9 °F 39.9 °F 43.7 °F 99% 29.73 in 10.0 mi NW 6.9 mph - N/A   Overcast
6:55 PM 44.1 °F 40.1 °F 43.7 °F 99% 29.74 in 10.0 mi WNW 6.9 mph - N/A   Overcast
7:15 PM 43.9 °F 39.3 °F 43.5 °F 99% 29.74 in 10.0 mi WNW 8.1 mph - N/A   Overcast
7:35 PM 44.1 °F 39.5 °F 43.3 °F 97% 29.74 in 10.0 mi WNW 8.1 mph - N/A   Overcast
7:55 PM 43.7 °F 38.1 °F 41.0 °F 90% 29.75 in 10.0 mi WNW 10.4 mph 16.1 mph N/A   Overcast
8:15 PM 43.7 °F 37.7 °F 40.3 °F 88% 29.76 in 10.0 mi WNW 11.5 mph - N/A   Overcast
8:35 PM 43.5 °F 37.9 °F 39.6 °F 86% 29.77 in 10.0 mi WNW 10.4 mph - N/A   Overcast
8:55 PM 43.2 °F 37.9 °F 39.2 °F 86% 29.77 in 10.0 mi WNW 9.2 mph - N/A   Overcast
9:15 PM 43.0 °F 40.3 °F 39.4 °F 87% 29.78 in 10.0 mi WNW 4.6 mph - N/A   Overcast
9:35 PM 43.0 °F 37.7 °F 39.2 °F 86% 29.79 in 10.0 mi WNW 9.2 mph - N/A   Overcast
9:55 PM 42.8 °F 38.6 °F 39.4 °F 88% 29.79 in 10.0 mi WNW 6.9 mph - N/A   Overcast
10:15 PM 42.8 °F 40.1 °F 39.4 °F 88% 29.80 in 10.0 mi NW 4.6 mph - N/A   Overcast
10:35 PM 42.8 °F 39.3 °F 39.2 °F 87% 29.81 in 10.0 mi WNW 5.8 mph - N/A   Overcast
10:55 PM 43.0 °F 39.5 °F 39.0 °F 86% 29.81 in 10.0 mi NW 5.8 mph - N/A   Overcast
11:15 PM 43.0 °F 39.5 °F 38.3 °F 84% 29.82 in 10.0 mi WNW 5.8 mph - N/A   Overcast
11:35 PM 43.0 °F 39.5 °F 37.9 °F 82% 29.82 in 10.0 mi WNW 5.8 mph - N/A   Overcast
11:55 PM 43.0 °F 41.3 °F 37.8 °F 82% 29.83 in 10.0 mi WNW 3.5 mph - N/A   Overcast